Location: Newark
(41.8083°N, 72.2500°W)
Time: 00:32:25
(UTC+00:00)

Vanguard 1 - Visible Passes

Search period start: 28 November 2021 00:00
Search period end: 08 December 2021 00:00
Orbit: 653 x 3830 km, 34.3° (Epoch: 27 November)

Date Brightness Start Highest point End Pass type
(mag) Time Alt. Az. Time Alt. Az. Time Alt. Az.
28 Nov 13.3 05:43:52 32° ESE 05:43:52 32° ESE 05:51:33 10° E visible
28 Nov 12.4 07:56:34 62° SSW 07:59:10 66° S 08:13:36 10° E visible
28 Nov 12.2 10:09:16 21° W 10:23:00 58° SSW 10:33:33 10° ESE visible
29 Nov14.203:50:48E03:50:48E03:09:03SSWvisible
29 Nov 13.1 06:03:30 39° ESE 06:03:30 39° ESE 06:12:48 10° E visible
29 Nov 12.4 08:16:11 58° SW 08:20:26 68° S 08:34:30 10° E visible
29 Nov 12.3 10:28:53 16° W 10:43:52 53° SSW 10:54:03 10° SE visible
30 Nov14.104:10:24E04:10:24E03:28:35SSWvisible
30 Nov 12.9 06:23:06 47° ESE 06:23:06 47° ESE 06:33:57 10° E visible
30 Nov 12.4 08:35:48 52° WSW 08:41:40 67° S 08:55:21 10° ESE visible
30 Nov 12.4 10:48:29 12° W 11:04:32 46° SSW 11:14:23 10° SE visible
01 Dec 14.0 04:30:00 13° E 04:30:00 13° E 04:31:27 10° E visible
01 Dec 12.8 06:42:41 55° ESE 06:42:41 55° ESE 06:55:02 10° E visible
01 Dec 12.4 08:55:23 45° WSW 09:02:51 65° SSW 09:16:09 10° ESE visible
01 Dec 12.5 11:09:19 10° W 11:25:03 38° SW 11:34:30 10° SSE visible
02 Dec 13.8 04:49:35 18° E 04:49:35 18° E 04:52:56 10° E visible
02 Dec 12.6 07:02:17 62° SE 07:02:17 62° SE 07:16:05 10° E visible
02 Dec 12.4 09:14:59 39° WSW 09:23:54 61° SSW 09:36:48 10° ESE visible
02 Dec 12.7 11:31:19 10° W 11:45:23 31° SW 11:54:18 10° SSE visible
03 Dec 13.9 02:14:06 10° S 02:14:47 11° S 02:14:47 11° S visible
03 Dec 13.6 05:09:10 24° E 05:09:10 24° E 05:14:17 10° E visible
03 Dec 12.5 07:21:52 68° SSE 07:21:52 68° SSE 07:37:04 10° E visible
03 Dec 12.4 09:34:34 32° W 09:44:50 56° SSW 09:57:22 10° SE visible
04 Dec 13.8 02:33:18 10° SSW 02:34:30 13° SSW 02:34:30 13° SSW visible
04 Dec 13.5 05:28:46 29° E 05:28:46 29° E 05:35:32 10° E visible
04 Dec 12.5 07:41:27 69° S 07:41:35 69° S 07:58:00 10° ESE visible
04 Dec 12.5 09:54:09 27° W 10:05:36 49° SSW 10:17:43 10° SE visible
05 Dec 13.7 00:40:06 10° SSE 00:41:33 12° SSE 00:41:33 12° SSE visible
05 Dec 13.8 02:53:00 10° SSW 03:35:40 - ENE 02:54:15 13° SSW visible
05 Dec 13.3 05:48:22 35° E 05:48:22 35° E 05:56:44 10° E visible
05 Dec 12.5 08:01:03 65° SSW 08:02:51 67° SSW 08:18:50 10° ESE visible
05 Dec 12.7 10:13:45 21° W 10:26:12 42° SW 10:37:51 10° SSE visible
06 Dec 13.5 00:57:12 10° S 01:01:20 16° SSE 01:01:20 16° SSE visible
06 Dec 13.9 03:13:04 10° SW 03:55:18 - E 03:14:03 13° SW visible
06 Dec 13.1 06:07:59 42° ESE 06:07:59 42° ESE 06:17:53 10° E visible
06 Dec 12.5 08:20:41 58° SW 08:24:01 63° SSW 08:39:35 10° ESE visible
06 Dec 12.8 10:33:23 16° W 10:46:36 34° SW 10:57:41 10° SSE visible
07 Dec 13.4 01:15:43 10° S 01:21:09 21° SSE 01:21:09 21° SSE visible
07 Dec 13.9 03:33:26 10° SW 04:14:56 10° E 03:33:52 11° SW visible
07 Dec 13.0 06:27:37 48° ESE 06:27:37 48° ESE 06:38:58 10° E visible
07 Dec 12.6 08:40:19 51° WSW 08:45:04 58° SSW 09:00:10 10° SE visible
07 Dec 13.0 10:53:01 12° W 11:06:50 27° SW 11:17:05 10° S visible
